Simultaneous Nadir Overpasses (SNOs) Predictions

Prediction of SNOs between GOES-15 and NPP Satellite Orbit:

Table of predicted SNOs for the next 14.0 days since TLE Epoch: 11/24/2012
Index Date Time (GOES-15) GOES-15 Lat,Lon NPP Lat,Lon Distance(km) Time Diff (sec)
1 11/24/2012 22:38:11 0.03,-135.00 -0.86,-138.99 454.06 80
2 11/25/2012 22:22:06 0.01,-135.04 0.16,-134.46 67.00 80
3 11/28/2012 10:25:10 -0.02,-135.14 -0.03,-135.20 6.86 80
4 11/30/2012 22:25:41 0.03,-135.20 -0.16,-135.97 87.38 80
5 12/01/2012 22:09:36 0.01,-135.24 0.87,-131.44 432.73 80
6 12/03/2012 10:28:45 -0.04,-135.29 0.27,-136.72 162.07 80
7 12/04/2012 10:12:39 -0.03,-135.32 -0.70,-132.18 357.46 80
8 12/05/2012 22:31:55 0.05,-135.34 -0.44,-137.49 245.11 80
9 12/06/2012 22:15:51
